Location: Gradaro
(45.0833°N, 10.8833°E)
Time: 15:05:33
(UTC+00:00)

Cosmos 2278 Rocket - Pass Details

Date: 29 November 2020
Orbit: 839 x 847 km, 71.0° (Epoch: 24 January)

Event Time Altitude Azimuth Distance (km) Brightness Sun altitude
Rises 05:24:31 0° 179° (S) 3,378 5.6 -11.8°
Reaches altitude 10° 05:27:07 10° 171° (S) 2,449 5.0 -11.3°
Maximum altitude 05:32:12 36° 106° (ESE) 1,301 4.0 -10.5°
Drops below altitude 10° 05:37:19 10° 41° (NE) 2,469 4.9 -9.6°
Sets 05:39:56 0° 33° (NNE) 3,410 5.5 -9.2°
